Location: Hains Lake
(37.8540°N, 99.8578°W)
Time: 13:01:02
(UTC+00:00)

Transit 2A - Pass Details

Date: 25 April 2021
Orbit: 602 x 957 km, 66.7° (Epoch: 13 May)

Event Time Altitude Azimuth Distance (km) Brightness Sun altitude
Rises 20:24:49 0° 345° (NNW) 2,883 8.9 55.9°
Reaches altitude 10° 20:27:26 10° 0° (N) 2,003 8.1 55.5°
Maximum altitude 20:31:01 23° 53° (NE) 1,385 7.3 54.9°
Drops below altitude 10° 20:34:47 10° 106° (ESE) 2,118 8.2 54.3°
Sets 20:37:38 0° 120° (ESE) 3,094 9.0 53.8°
